Starlink 33841

operational
NORAD ID: 63771 Int'l Des: 2025-089 Owner: SPXS Country: US Constellation: starlink
LEOCIRCULAR

Über Starlink 33841

Beschreibung wird geladen...

Live-Position

3D-Globus wird geladen...

Nächste Überflüge

Höhenverlauf

Altitude vs Time

uPlot chart will show altitude changes over time

Zweizeiliger Elementsatz

1 63771U 25089W 25260.11830687 .00022892 00000-0 83896-3 0 9997
2 63771 43.0023 305.3379 0000364 58.3129 301.7759 15.27574961 22361
Epoch: 17. Sept. 2025 • Age: 25 hours

Aktueller Status

Höhe 483.0 km
Geschwindigkeit 7.63 km/s
Subsatellitenpunkt 28.53°N, 84.63°W
Startdatum 29. Apr. 2025
Alter 0.3 years
Typ internet

Technische Details

Klassifizierung Payload
Masse 575.00 kg
Trockenmasse 530.00 kg
Gesamtmasse 575.00 kg
Länge 0.30 m
Durchmesser 4.10 m
Spannweite 29.00 m
Form Box + pan
Hersteller SPXS
Bus-Typ Starlink V2MO
Phasenstatus In Orbit
Besitzer/Staat SPXS/US

Große Konstellationen

Loading constellations...